| time (UTC) | temp F | wind direction | speed MPH | gust MPH | rain 1hr in | rain 24hr in | rain mn in | humidity % | barometer mb |
| 20260902222521 | 95 | 160 | 1.0 | 3.0 | 0.00 | 0.00 | 0.00 | 44 | 1009.8 |
| 20260902222101 | 95 | 150 | 0.0 | 3.0 | 0.00 | 0.00 | 0.00 | 45 | 1009.7 |
| 20260902221547 | 95 | 166 | 0.0 | 4.0 | 0.00 | 0.00 | 0.00 | 44 | 1009.7 |
| 20260902221020 | 95 | 158 | 0.0 | 1.0 | 0.00 | 0.00 | 0.00 | 45 | 1009.7 |
| 20260902220604 | 95 | 97 | 0.0 | 1.0 | 0.00 | 0.00 | 0.00 | 44 | 1009.7 |
| 20260902220052 | 95 | 97 | 0.0 | 2.0 | 0.00 | 0.00 | 0.00 | 44 | 1009.8 |
| 20260902215524 | 95 | 167 | 0.0 | 2.0 | 0.00 | 0.00 | 0.00 | 44 | 1009.9 |
| 20260902215003 | 95 | 160 | 0.0 | 3.0 | 0.00 | 0.00 | 0.00 | 43 | 1009.9 |
| 20260902214545 | 96 | 114 | 0.0 | 4.0 | 0.00 | 0.00 | 0.00 | 42 | 1009.9 |
| 20260902214025 | 96 | 170 | 1.0 | 4.0 | 0.00 | 0.00 | 0.00 | 43 | 1009.9 |
| 20260902213504 | 96 | 130 | 1.0 | 4.0 | 0.00 | 0.00 | 0.00 | 42 | 1010.0 |
| 20260902213050 | 96 | 160 | 1.0 | 4.0 | 0.00 | 0.00 | 0.00 | 43 | 1010.0 |
| 20260902212527 | 96 | 119 | 0.0 | 3.0 | 0.00 | 0.00 | 0.00 | 44 | 1010.0 |
| 20260902212005 | 96 | 133 | 0.0 | 3.0 | 0.00 | 0.00 | 0.00 | 42 | 1010.2 |
| 20260902211550 | 96 | 134 | 0.0 | 3.0 | 0.00 | 0.00 | 0.00 | 43 | 1010.3 |
| 20260902211029 | 96 | 133 | 0.0 | 5.0 | 0.00 | 0.00 | 0.00 | 43 | 1010.3 |
| 20260902210508 | 96 | 160 | 0.0 | 5.0 | 0.00 | 0.00 | 0.00 | 44 | 1010.4 |
| 20260902210107 | 96 | 165 | 1.0 | 3.0 | 0.00 | 0.00 | 0.00 | 44 | 1010.3 |
| 20260902205531 | 95 | 143 | 0.0 | 2.0 | 0.00 | 0.00 | 0.00 | 45 | 1010.5 |
| 20260902205011 | 95 | 198 | 0.0 | 1.0 | 0.00 | 0.00 | 0.00 | 46 | 1010.6 |
| 20260902204553 | 95 | 163 | 0.0 | 1.0 | 0.00 | 0.00 | 0.00 | 45 | 1010.7 |
| 20260902204033 | 95 | 162 | 0.0 | 4.0 | 0.00 | 0.00 | 0.00 | 44 | 1010.7 |
| 20260902203512 | 96 | 165 | 0.0 | 4.0 | 0.00 | 0.00 | 0.00 | 44 | 1010.8 |
| 20260902203100 | 96 | 127 | 0.0 | 3.0 | 0.00 | 0.00 | 0.00 | 44 | 1010.8 |
| 20260902202536 | 96 | 138 | 0.0 | 5.0 | 0.00 | 0.00 | 0.00 | 44 | 1010.8 |
| 20260902202017 | 95 | 169 | 2.0 | 5.0 | 0.00 | 0.00 | 0.00 | 45 | 1010.8 |
| 20260902201605 | 95 | 150 | 0.0 | 3.0 | 0.00 | 0.00 | 0.00 | 45 | 1010.8 |
| 20260902201041 | 95 | 150 | 0.0 | 2.0 | 0.00 | 0.00 | 0.00 | 44 | 1010.9 |
| 20260902200520 | 96 | 139 | 0.0 | 2.0 | 0.00 | 0.00 | 0.00 | 43 | 1010.9 |
| 20260902200111 | 96 | 139 | 0.0 | 4.0 | 0.00 | 0.00 | 0.00 | 42 | 1010.9 |
| 20260902195541 | 97 | 152 | 1.0 | 5.0 | 0.00 | 0.00 | 0.00 | 42 | 1011.1 |
| 20260902195019 | 97 | 152 | 0.0 | 5.0 | 0.00 | 0.00 | 0.00 | 43 | 1011.1 |
| 20260902194603 | 97 | 124 | 0.0 | 2.0 | 0.00 | 0.00 | 0.00 | 44 | 1011.1 |
| 20260902194045 | 97 | 117 | 0.0 | 3.0 | 0.00 | 0.00 | 0.00 | 44 | 1011.3 |
| 20260902193522 | 97 | 118 | 0.0 | 3.0 | 0.00 | 0.00 | 0.00 | 44 | 1011.2 |
| 20260902193002 | 97 | 134 | 0.0 | 5.0 | 0.00 | 0.00 | 0.00 | 44 | 1011.4 |
| 20260902192545 | 96 | 205 | 2.0 | 5.0 | 0.00 | 0.00 | 0.00 | 44 | 1011.4 |
| 20260902192024 | 96 | 163 | 0.0 | 4.0 | 0.00 | 0.00 | 0.00 | 44 | 1011.5 |
| 20260902191504 | 96 | 156 | 0.0 | 4.0 | 0.00 | 0.00 | 0.00 | 44 | 1011.6 |
| 20260902191048 | 96 | 135 | 1.0 | 4.0 | 0.00 | 0.00 | 0.00 | 44 | 1011.6 |
| 20260902190528 | 96 | 124 | 0.0 | 4.0 | 0.00 | 0.00 | 0.00 | 46 | 1011.8 |
| 20260902190009 | 96 | 160 | 1.0 | 3.0 | 0.00 | 0.00 | 0.00 | 46 | 1011.8 |
| 20260902185549 | 96 | 161 | 0.0 | 4.0 | 0.00 | 0.00 | 0.00 | 46 | 1011.8 |
| 20260902185033 | 96 | 148 | 0.0 | 4.0 | 0.00 | 0.00 | 0.00 | 46 | 1011.9 |
| 20260902184510 | 95 | 150 | 2.0 | 4.0 | 0.00 | 0.00 | 0.00 | 46 | 1011.9 |
| 20260902184052 | 95 | 134 | 1.0 | 4.0 | 0.00 | 0.00 | 0.00 | 46 | 1012.0 |
| 20260902183532 | 95 | 229 | 0.0 | 3.0 | 0.00 | 0.00 | 0.00 | 48 | 1012.2 |
| 20260902183013 | 95 | 172 | 0.0 | 3.0 | 0.00 | 0.00 | 0.00 | 48 | 1012.3 |
| 20260902182554 | 95 | 214 | 0.0 | 3.0 | 0.00 | 0.00 | 0.00 | 46 | 1012.3 |
| 20260902182037 | 95 | 161 | 0.0 | 3.0 | 0.00 | 0.00 | 0.00 | 49 | 1012.4 |
| 20260902181513 | 95 | 101 | 0.0 | 1.0 | 0.00 | 0.00 | 0.00 | 49 | 1012.3 |
| 20260902181057 | 94 | 101 | 0.0 | 1.0 | 0.00 | 0.00 | 0.00 | 51 | 1012.3 |
| 20260902180537 | 94 | 101 | 0.0 | 2.0 | 0.00 | 0.00 | 0.00 | 50 | 1012.5 |
| 20260902180025 | 94 | 101 | 0.0 | 3.0 | 0.00 | 0.00 | 0.00 | 49 | 1012.5 |
| 20260902175602 | 93 | 101 | 0.0 | 3.0 | 0.00 | 0.00 | 0.00 | 50 | 1012.6 |
| 20260902175040 | 93 | 207 | 0.0 | 2.0 | 0.00 | 0.00 | 0.00 | 50 | 1012.8 |
| 20260902174520 | 93 | 215 | 0.0 | 1.0 | 0.00 | 0.00 | 0.00 | 50 | 1012.7 |
| 20260902174103 | 93 | 215 | 0.0 | 1.0 | 0.00 | 0.00 | 0.00 | 51 | 1012.8 |
| 20260902173543 | 93 | 215 | 0.0 | 1.0 | 0.00 | 0.00 | 0.00 | 51 | 1012.9 |
| 20260902173032 | 92 | 215 | 0.0 | 1.0 | 0.00 | 0.00 | 0.00 | 52 | 1012.9 |
| 20260902172504 | 92 | 215 | 0.0 | 1.0 | 0.00 | 0.00 | 0.00 | 52 | 1013.0 |
| 20260902172045 | 92 | 164 | 0.0 | 1.0 | 0.00 | 0.00 | 0.00 | 53 | 1013.1 |
| 20260902171521 | 92 | 193 | 0.0 | 3.0 | 0.00 | 0.00 | 0.00 | 53 | 1013.2 |
| 20260902171104 | 92 | 193 | 0.0 | 3.0 | 0.00 | 0.00 | 0.00 | 54 | 1013.2 |
| 20260902170545 | 92 | 134 | 0.0 | 3.0 | 0.00 | 0.00 | 0.00 | 55 | 1013.2 |
| 20260902170023 | 91 | 160 | 0.0 | 1.0 | 0.00 | 0.00 | 0.00 | 55 | 1013.3 |
| 20260902165504 | 91 | 148 | 0.0 | 5.0 | 0.00 | 0.00 | 0.00 | 55 | 1013.4 |
| 20260902165049 | 91 | 141 | 1.0 | 5.0 | 0.00 | 0.00 | 0.00 | 55 | 1013.4 |
| 20260902164529 | 91 | 115 | 0.0 | 3.0 | 0.00 | 0.00 | 0.00 | 56 | 1013.3 |
| 20260902164006 | 90 | 178 | 0.0 | 3.0 | 0.00 | 0.00 | 0.00 | 57 | 1013.5 |
| 20260902163552 | 90 | 207 | 0.0 | 3.0 | 0.00 | 0.00 | 0.00 | 58 | 1013.4 |
| 20260902163031 | 90 | 280 | 0.0 | 1.0 | 0.00 | 0.00 | 0.00 | 56 | 1013.5 |
| 20260902162509 | 90 | 281 | 0.0 | 3.0 | 0.00 | 0.00 | 0.00 | 58 | 1013.5 |
| 20260902162054 | 90 | 280 | 0.0 | 3.0 | 0.00 | 0.00 | 0.00 | 57 | 1013.5 |
| 20260902161537 | 89 | 280 | 0.0 | 2.0 | 0.00 | 0.00 | 0.00 | 55 | 1013.4 |
| 20260902161012 | 89 | 279 | 0.0 | 2.0 | 0.00 | 0.00 | 0.00 | 57 | 1013.5 |
| 20260902160555 | 89 | 279 | 0.0 | 2.0 | 0.00 | 0.00 | 0.00 | 57 | 1013.4 |
| 20260902160041 | 89 | 291 | 0.0 | 3.0 | 0.00 | 0.00 | 0.00 | 57 | 1013.5 |
| 20260902155515 | 89 | 291 | 0.0 | 2.0 | 0.00 | 0.00 | 0.00 | 58 | 1013.5 |
| 20260902155058 | 88 | 291 | 0.0 | 3.0 | 0.00 | 0.00 | 0.00 | 58 | 1013.5 |
| 20260902154538 | 88 | 291 | 0.0 | 3.0 | 0.00 | 0.00 | 0.00 | 58 | 1013.5 |
| 20260902154022 | 88 | 235 | 0.0 | 3.0 | 0.00 | 0.00 | 0.00 | 59 | 1013.4 |
| 20260902153600 | 88 | 161 | 0.0 | 3.0 | 0.00 | 0.00 | 0.00 | 59 | 1013.4 |
| 20260902153040 | 87 | 126 | 0.0 | 2.0 | 0.00 | 0.00 | 0.00 | 62 | 1013.4 |
| 20260902152520 | 87 | 306 | 0.0 | 2.0 | 0.00 | 0.00 | 0.00 | 62 | 1013.4 |
| 20260902152103 | 87 | 306 | 0.0 | 2.0 | 0.00 | 0.00 | 0.00 | 61 | 1013.4 |
| 20260902151542 | 86 | 92 | 0.0 | 1.0 | 0.00 | 0.00 | 0.00 | 62 | 1013.4 |
| 20260902151021 | 86 | 92 | 0.0 | 3.0 | 0.00 | 0.00 | 0.00 | 64 | 1013.4 |
| 20260902150501 | 85 | 256 | 0.0 | 1.0 | 0.00 | 0.00 | 0.00 | 64 | 1013.4 |
| 20260902150045 | 85 | 256 | 0.0 | 1.0 | 0.00 | 0.00 | 0.00 | 64 | 1013.4 |
| 20260902145524 | 85 | 278 | 0.0 | 2.0 | 0.00 | 0.00 | 0.00 | 64 | 1013.4 |
| 20260902145006 | 84 | 278 | 0.0 | 2.0 | 0.00 | 0.00 | 0.00 | 65 | 1013.5 |
| 20260902144547 | 84 | 158 | 0.0 | 1.0 | 0.00 | 0.00 | 0.00 | 66 | 1013.4 |
| 20260902144028 | 83 | 127 | 0.0 | 1.0 | 0.00 | 0.00 | 0.00 | 68 | 1013.5 |
| 20260902143506 | 83 | 212 | 0.0 | 1.0 | 0.00 | 0.00 | 0.00 | 67 | 1013.4 |
| 20260902143050 | 83 | 250 | 0.0 | 1.0 | 0.00 | 0.00 | 0.00 | 68 | 1013.5 |
| 20260902142530 | 82 | 110 | 0.0 | 1.0 | 0.00 | 0.00 | 0.00 | 70 | 1013.6 |
| 20260902142009 | 82 | 115 | 0.0 | 2.0 | 0.00 | 0.00 | 0.00 | 70 | 1013.6 |
| 20260902141600 | 81 | 115 | 0.0 | 2.0 | 0.00 | 0.00 | 0.00 | 70 | 1013.6 |
| 20260902141033 | 81 | 122 | 0.0 | 1.0 | 0.00 | 0.00 | 0.00 | 70 | 1013.6 |
| 20260902140511 | 80 | 120 | 0.0 | 1.0 | 0.00 | 0.00 | 0.00 | 71 | 1013.6 |
| 20260902140058 | 80 | 120 | 0.0 | 1.0 | 0.00 | 0.00 | 0.00 | 71 | 1013.5 |
| 20260902135534 | 80 | 148 | 0.0 | 1.0 | 0.00 | 0.00 | 0.00 | 71 | 1013.5 |
| 20260902135015 | 79 | 133 | 0.0 | 1.0 | 0.00 | 0.00 | 0.00 | 71 | 1013.5 |
| 20260902134612 | 79 | 131 | 0.0 | 1.0 | 0.00 | 0.00 | 0.00 | 71 | 1013.6 |
| 20260902134037 | 78 | 160 | 0.0 | 1.0 | 0.00 | 0.00 | 0.00 | 71 | 1013.6 |
| 20260902133521 | 78 | 106 | 0.0 | 1.0 | 0.00 | 0.00 | 0.00 | 71 | 1013.6 |
| 20260902133100 | 78 | 106 | 0.0 | 1.0 | 0.00 | 0.00 | 0.00 | 71 | 1013.5 |
| 20260902132538 | 77 | 168 | 0.0 | 2.0 | 0.00 | 0.00 | 0.00 | 70 | 1013.5 |
| 20260902132018 | 77 | 123 | 0.0 | 2.0 | 0.00 | 0.00 | 0.00 | 70 | 1013.5 |
| 20260902131602 | 77 | 167 | 0.0 | 2.0 | 0.00 | 0.00 | 0.00 | 70 | 1013.5 |
| 20260902131044 | 76 | 159 | 0.0 | 2.0 | 0.00 | 0.00 | 0.00 | 69 | 1013.5 |
| 20260902130515 | 76 | 158 | 0.0 | 1.0 | 0.00 | 0.00 | 0.00 | 69 | 1013.5 |
| 20260902125537 | 76 | 146 | 0.0 | 2.0 | 0.00 | 0.00 | 0.00 | 69 | 1013.4 |
| 20260902125018 | 76 | 160 | 0.0 | 2.0 | 0.00 | 0.00 | 0.00 | 68 | 1013.4 |
| 20260902124600 | 75 | 164 | 0.0 | 2.0 | 0.00 | 0.00 | 0.00 | 68 | 1013.4 |
| 20260902124041 | 75 | 156 | 0.0 | 1.0 | 0.00 | 0.00 | 0.00 | 68 | 1013.3 |
| 20260902123519 | 75 | 155 | 0.0 | 1.0 | 0.00 | 0.00 | 0.00 | 68 | 1013.4 |
| 20260902123103 | 75 | 131 | 0.0 | 0.0 | 0.00 | 0.00 | 0.00 | 67 | 1013.3 |
| 20260902122542 | 75 | 152 | 0.0 | 0.0 | 0.00 | 0.00 | 0.00 | 67 | 1013.2 |
| 20260902122021 | 75 | 142 | 0.0 | 0.0 | 0.00 | 0.00 | 0.00 | 66 | 1013.2 |
| 20260902121604 | 75 | 129 | 0.0 | 0.0 | 0.00 | 0.00 | 0.00 | 67 | 1013.1 |
| 20260902121043 | 75 | 128 | 0.0 | 0.0 | 0.00 | 0.00 | 0.00 | 68 | 1013.1 |
| 20260902120523 | 75 | 128 | 0.0 | 0.0 | 0.00 | 0.00 | 0.00 | 68 | 1013.0 |
| 20260902120002 | 75 | 152 | 0.0 | 0.0 | 0.00 | 0.00 | 0.00 | 68 | 1013.1 |
| 20260902115545 | 75 | 152 | 0.0 | 0.0 | 0.00 | 0.00 | 0.00 | 69 | 1013.0 |
| 20260902115025 | 75 | 159 | 0.0 | 0.0 | 0.00 | 0.00 | 0.00 | 70 | 1013.0 |
| 20260902114504 | 75 | 154 | 0.0 | 0.0 | 0.00 | 0.00 | 0.00 | 70 | 1013.0 |
| 20260902114049 | 75 | 157 | 0.0 | 0.0 | 0.00 | 0.00 | 0.00 | 71 | 1012.9 |
| 20260902113527 | 76 | 148 | 0.0 | 0.0 | 0.00 | 0.00 | 0.00 | 71 | 1012.9 |
| 20260902113013 | 76 | 148 | 0.0 | 0.0 | 0.00 | 0.00 | 0.00 | 71 | 1012.8 |
| 20260902112551 | 76 | 144 | 0.0 | 0.0 | 0.00 | 0.00 | 0.00 | 71 | 1012.8 |
| 20260902112029 | 76 | 144 | 0.0 | 0.0 | 0.00 | 0.00 | 0.00 | 71 | 1012.7 |
| 20260902111509 | 76 | 144 | 0.0 | 0.0 | 0.00 | 0.00 | 0.00 | 71 | 1012.7 |
| 20260902111052 | 76 | 144 | 0.0 | 0.0 | 0.00 | 0.00 | 0.00 | 71 | 1012.6 |
| 20260902110533 | 76 | 144 | 0.0 | 0.0 | 0.00 | 0.00 | 0.00 | 71 | 1012.7 |
| 20260902110011 | 76 | 144 | 0.0 | 0.0 | 0.00 | 0.00 | 0.00 | 71 | 1012.7 |
| 20260902105557 | 76 | 144 | 0.0 | 0.0 | 0.00 | 0.00 | 0.00 | 72 | 1012.7 |
| 20260902105035 | 76 | 144 | 0.0 | 0.0 | 0.00 | 0.00 | 0.00 | 72 | 1012.7 |
| 20260902104518 | 76 | 144 | 0.0 | 0.0 | 0.00 | 0.00 | 0.00 | 72 | 1012.6 |
| 20260902104100 | 76 | 144 | 0.0 | 0.0 | 0.00 | 0.00 | 0.00 | 72 | 1012.6 |
| 20260902103538 | 76 | 144 | 0.0 | 0.0 | 0.00 | 0.00 | 0.00 | 72 | 1012.6 |
| 20260902103015 | 76 | 144 | 0.0 | 0.0 | 0.00 | 0.00 | 0.00 | 72 | 1012.6 |
| 20260902102558 | 76 | 144 | 0.0 | 0.0 | 0.00 | 0.00 | 0.00 | 72 | 1012.5 |
| 20260902102038 | 76 | 144 | 0.0 | 0.0 | 0.00 | 0.00 | 0.00 | 72 | 1012.4 |
| 20260902101516 | 76 | 144 | 0.0 | 0.0 | 0.00 | 0.00 | 0.00 | 72 | 1012.4 |
| 20260902101058 | 76 | 144 | 0.0 | 0.0 | 0.00 | 0.00 | 0.00 | 71 | 1012.3 |
| 20260902100538 | 77 | 144 | 0.0 | 0.0 | 0.00 | 0.00 | 0.00 | 71 | 1012.3 |
| 20260902100018 | 77 | 144 | 0.0 | 0.0 | 0.00 | 0.00 | 0.00 | 71 | 1012.3 |
| 20260902095600 | 77 | 144 | 0.0 | 0.0 | 0.00 | 0.00 | 0.00 | 71 | 1012.3 |
| 20260902095040 | 77 | 144 | 0.0 | 0.0 | 0.00 | 0.00 | 0.00 | 71 | 1012.3 |
| 20260902094520 | 77 | 144 | 0.0 | 0.0 | 0.00 | 0.00 | 0.00 | 71 | 1012.3 |
| 20260902094104 | 77 | 144 | 0.0 | 0.0 | 0.00 | 0.00 | 0.00 | 71 | 1012.2 |
| 20260902093543 | 77 | 144 | 0.0 | 0.0 | 0.00 | 0.00 | 0.00 | 71 | 1012.2 |
| 20260902093022 | 77 | 144 | 0.0 | 0.0 | 0.00 | 0.00 | 0.00 | 71 | 1012.2 |
| 20260902092503 | 77 | 144 | 0.0 | 0.0 | 0.00 | 0.00 | 0.00 | 71 | 1012.2 |
| 20260902092045 | 77 | 144 | 0.0 | 0.0 | 0.00 | 0.00 | 0.00 | 71 | 1012.2 |
| 20260902091525 | 77 | 144 | 0.0 | 0.0 | 0.00 | 0.00 | 0.00 | 71 | 1012.2 |
| 20260902091004 | 77 | 144 | 0.0 | 0.0 | 0.00 | 0.00 | 0.00 | 71 | 1012.2 |
| 20260902090551 | 77 | 144 | 0.0 | 0.0 | 0.00 | 0.00 | 0.00 | 71 | 1012.2 |
| 20260902090028 | 77 | 144 | 0.0 | 0.0 | 0.00 | 0.00 | 0.00 | 71 | 1012.2 |
| 20260902085511 | 77 | 144 | 0.0 | 0.0 | 0.00 | 0.00 | 0.00 | 71 | 1012.2 |
| 20260902085051 | 77 | 144 | 0.0 | 0.0 | 0.00 | 0.00 | 0.00 | 71 | 1012.1 |
| 20260902084531 | 78 | 144 | 0.0 | 0.0 | 0.00 | 0.00 | 0.00 | 71 | 1012.1 |
| 20260902084010 | 78 | 143 | 0.0 | 0.0 | 0.00 | 0.00 | 0.00 | 70 | 1012.1 |
| 20260902083554 | 78 | 148 | 0.0 | 0.0 | 0.00 | 0.00 | 0.00 | 70 | 1012.1 |
| 20260902083035 | 78 | 133 | 0.0 | 0.0 | 0.00 | 0.00 | 0.00 | 70 | 1012.1 |
| 20260902082515 | 78 | 148 | 0.0 | 0.0 | 0.00 | 0.00 | 0.00 | 70 | 1012.1 |
| 20260902082057 | 78 | 148 | 0.0 | 0.0 | 0.00 | 0.00 | 0.00 | 70 | 1012.1 |
| 20260902081536 | 78 | 144 | 0.0 | 0.0 | 0.00 | 0.00 | 0.00 | 70 | 1011.9 |
| 20260902081017 | 78 | 136 | 0.0 | 0.0 | 0.00 | 0.00 | 0.00 | 70 | 1011.9 |
| 20260902080600 | 78 | 136 | 0.0 | 0.0 | 0.00 | 0.00 | 0.00 | 70 | 1011.9 |
| 20260902080040 | 78 | 136 | 0.0 | 0.0 | 0.00 | 0.00 | 0.00 | 70 | 1012.0 |
| 20260902075518 | 78 | 136 | 0.0 | 0.0 | 0.00 | 0.00 | 0.00 | 70 | 1011.9 |
| 20260902075103 | 78 | 136 | 0.0 | 0.0 | 0.00 | 0.00 | 0.00 | 69 | 1011.9 |
| 20260902074557 | 78 | 136 | 0.0 | 0.0 | 0.00 | 0.00 | 0.00 | 70 | 1011.9 |
| 20260902074018 | 78 | 136 | 0.0 | 0.0 | 0.00 | 0.00 | 0.00 | 70 | 1011.9 |
| 20260902073603 | 78 | 136 | 0.0 | 0.0 | 0.00 | 0.00 | 0.00 | 69 | 1011.9 |
| 20260902073041 | 78 | 136 | 0.0 | 0.0 | 0.00 | 0.00 | 0.00 | 69 | 1011.9 |
| 20260902072521 | 79 | 136 | 0.0 | 0.0 | 0.00 | 0.00 | 0.00 | 69 | 1011.9 |
| 20260902072107 | 79 | 136 | 0.0 | 0.0 | 0.00 | 0.00 | 0.00 | 69 | 1011.9 |
| 20260902071544 | 79 | 136 | 0.0 | 0.0 | 0.00 | 0.00 | 0.00 | 69 | 1011.9 |
| 20260902071023 | 79 | 136 | 0.0 | 0.0 | 0.00 | 0.00 | 0.00 | 68 | 1011.9 |
| 20260902070502 | 79 | 136 | 0.0 | 0.0 | 0.00 | 0.00 | 0.00 | 68 | 1011.9 |
| 20260902070046 | 79 | 136 | 0.0 | 0.0 | 0.00 | 0.00 | 0.00 | 68 | 1011.8 |
| 20260902065527 | 79 | 136 | 0.0 | 0.0 | 0.00 | 0.00 | 0.00 | 68 | 1011.9 |
| 20260902065005 | 79 | 136 | 0.0 | 0.0 | 0.00 | 0.00 | 0.00 | 68 | 1011.9 |
| 20260902064550 | 79 | 136 | 0.0 | 0.0 | 0.00 | 0.00 | 0.00 | 68 | 1012.0 |
| 20260902064028 | 79 | 136 | 0.0 | 0.0 | 0.00 | 0.00 | 0.00 | 68 | 1012.0 |
| 20260902063512 | 79 | 136 | 0.0 | 0.0 | 0.00 | 0.00 | 0.00 | 68 | 1012.0 |
| 20260902063112 | 79 | 136 | 0.0 | 0.0 | 0.00 | 0.00 | 0.00 | 68 | 1012.1 |
| 20260902062532 | 79 | 136 | 0.0 | 0.0 | 0.00 | 0.00 | 0.00 | 68 | 1012.1 |
| 20260902062011 | 79 | 136 | 0.0 | 0.0 | 0.00 | 0.00 | 0.00 | 68 | 1012.1 |
| 20260902061556 | 80 | 136 | 0.0 | 0.0 | 0.00 | 0.00 | 0.00 | 67 | 1012.1 |
| 20260902061035 | 80 | 136 | 0.0 | 0.0 | 0.00 | 0.00 | 0.00 | 67 | 1012.1 |
| 20260902060516 | 80 | 136 | 0.0 | 0.0 | 0.00 | 0.00 | 0.00 | 67 | 1012.0 |
| 20260902060108 | 80 | 136 | 0.0 | 0.0 | 0.00 | 0.00 | 0.00 | 67 | 1012.0 |
| 20260902055537 | 80 | 122 | 0.0 | 0.0 | 0.00 | 0.00 | 0.00 | 67 | 1012.0 |
| 20260902055017 | 80 | 122 | 0.0 | 0.0 | 0.00 | 0.00 | 0.00 | 66 | 1012.0 |
| 20260902054610 | 80 | 122 | 0.0 | 0.0 | 0.00 | 0.00 | 0.00 | 66 | 1012.0 |
| 20260902054039 | 80 | 127 | 0.0 | 0.0 | 0.00 | 0.00 | 0.00 | 66 | 1012.0 |
| 20260902053519 | 80 | 127 | 0.0 | 0.0 | 0.00 | 0.00 | 0.00 | 66 | 1012.0 |
| 20260902053104 | 80 | 127 | 0.0 | 0.0 | 0.00 | 0.00 | 0.00 | 66 | 1012.0 |
| 20260902052545 | 80 | 127 | 0.0 | 0.0 | 0.00 | 0.00 | 0.00 | 67 | 1012.0 |
| 20260902052021 | 80 | 127 | 0.0 | 0.0 | 0.00 | 0.00 | 0.00 | 66 | 1011.9 |
| 20260902051502 | 80 | 127 | 0.0 | 0.0 | 0.00 | 0.00 | 0.00 | 65 | 1011.9 |
| 20260902051044 | 81 | 127 | 0.0 | 0.0 | 0.00 | 0.00 | 0.00 | 65 | 1011.9 |
| 20260902050524 | 81 | 127 | 0.0 | 0.0 | 0.00 | 0.00 | 0.00 | 64 | 1011.8 |
| 20260902050004 | 81 | 127 | 0.0 | 0.0 | 0.00 | 0.00 | 0.00 | 64 | 1011.8 |
| 20260902045547 | 81 | 127 | 0.0 | 0.0 | 0.00 | 0.00 | 0.00 | 64 | 1011.8 |
| 20260902045026 | 81 | 127 | 0.0 | 0.0 | 0.00 | 0.00 | 0.00 | 64 | 1011.9 |
| 20260902044512 | 81 | 127 | 0.0 | 0.0 | 0.00 | 0.00 | 0.00 | 64 | 1011.8 |
| 20260902044049 | 81 | 127 | 0.0 | 0.0 | 0.00 | 0.00 | 0.00 | 63 | 1011.8 |
| 20260902043528 | 81 | 127 | 0.0 | 0.0 | 0.00 | 0.00 | 0.00 | 64 | 1011.9 |
| 20260902043007 | 81 | 127 | 0.0 | 0.0 | 0.00 | 0.00 | 0.00 | 64 | 1012.0 |
| 20260902042554 | 82 | 127 | 0.0 | 0.0 | 0.00 | 0.00 | 0.00 | 63 | 1012.0 |
| 20260902042030 | 82 | 127 | 0.0 | 0.0 | 0.00 | 0.00 | 0.00 | 63 | 1011.9 |
| 20260902041509 | 82 | 127 | 0.0 | 0.0 | 0.00 | 0.00 | 0.00 | 62 | 1011.9 |
| 20260902041054 | 82 | 127 | 0.0 | 0.0 | 0.00 | 0.00 | 0.00 | 62 | 1011.9 |
| 20260902040532 | 82 | 127 | 0.0 | 0.0 | 0.00 | 0.00 | 0.00 | 62 | 1011.9 |
| 20260902040025 | 82 | 127 | 0.0 | 0.0 | 0.00 | 0.00 | 0.00 | 61 | 1011.9 |
| 20260902035601 | 83 | 127 | 0.0 | 0.0 | 0.00 | 0.00 | 0.00 | 61 | 1011.9 |
| 20260902035041 | 83 | 127 | 0.0 | 0.0 | 0.00 | 0.00 | 0.00 | 60 | 1011.9 |
| 20260902034521 | 83 | 127 | 0.0 | 0.0 | 0.00 | 0.00 | 0.00 | 60 | 1011.9 |
| 20260902034105 | 83 | 127 | 0.0 | 0.0 | 0.00 | 0.00 | 0.00 | 59 | 1011.8 |
| 20260902033543 | 83 | 127 | 0.0 | 0.0 | 0.00 | 0.00 | 0.00 | 59 | 1011.8 |
| 20260902033023 | 83 | 127 | 0.0 | 0.0 | 0.00 | 0.00 | 0.00 | 59 | 1011.8 |
| 20260902032502 | 83 | 127 | 0.0 | 0.0 | 0.00 | 0.00 | 0.00 | 58 | 1011.7 |
| 20260902032046 | 84 | 127 | 0.0 | 0.0 | 0.00 | 0.00 | 0.00 | 58 | 1011.7 |
| 20260902031525 | 84 | 127 | 0.0 | 0.0 | 0.00 | 0.00 | 0.00 | 58 | 1011.6 |
| 20260902031006 | 84 | 127 | 0.0 | 0.0 | 0.00 | 0.00 | 0.00 | 58 | 1011.6 |
| 20260902030552 | 84 | 127 | 0.0 | 0.0 | 0.00 | 0.00 | 0.00 | 58 | 1011.6 |
| 20260902030029 | 84 | 127 | 0.0 | 0.0 | 0.00 | 0.00 | 0.00 | 58 | 1011.5 |
| 20260902025508 | 84 | 127 | 0.0 | 0.0 | 0.00 | 0.00 | 0.00 | 58 | 1011.5 |
| 20260902025052 | 84 | 127 | 0.0 | 0.0 | 0.00 | 0.00 | 0.00 | 58 | 1011.5 |
| 20260902024531 | 84 | 127 | 0.0 | 0.0 | 0.00 | 0.00 | 0.00 | 58 | 1011.4 |
| 20260902024010 | 84 | 127 | 0.0 | 0.0 | 0.00 | 0.00 | 0.00 | 58 | 1011.5 |
| 20260902023554 | 84 | 127 | 0.0 | 0.0 | 0.00 | 0.00 | 0.00 | 57 | 1011.4 |
| 20260902023034 | 85 | 127 | 0.0 | 0.0 | 0.00 | 0.00 | 0.00 | 57 | 1011.4 |
| 20260902022513 | 85 | 127 | 0.0 | 0.0 | 0.00 | 0.00 | 0.00 | 57 | 1011.4 |
| 20260902022057 | 85 | 127 | 0.0 | 0.0 | 0.00 | 0.00 | 0.00 | 57 | 1011.3 |
| 20260902021538 | 85 | 127 | 0.0 | 0.0 | 0.00 | 0.00 | 0.00 | 56 | 1011.3 |
| 20260902021015 | 85 | 127 | 0.0 | 0.0 | 0.00 | 0.00 | 0.00 | 56 | 1011.2 |
| 20260902020600 | 85 | 127 | 0.0 | 0.0 | 0.00 | 0.00 | 0.00 | 56 | 1011.2 |
| 20260902020038 | 85 | 127 | 0.0 | 0.0 | 0.00 | 0.00 | 0.00 | 56 | 1011.3 |
| 20260902015518 | 85 | 127 | 0.0 | 0.0 | 0.00 | 0.00 | 0.00 | 56 | 1011.2 |
| 20260902015101 | 86 | 127 | 0.0 | 0.0 | 0.00 | 0.00 | 0.00 | 56 | 1011.2 |
| 20260902014549 | 86 | 127 | 0.0 | 0.0 | 0.00 | 0.00 | 0.00 | 56 | 1011.0 |
| 20260902014020 | 86 | 127 | 0.0 | 0.0 | 0.00 | 0.00 | 0.00 | 55 | 1011.0 |
| 20260902013603 | 86 | 127 | 0.0 | 0.0 | 0.00 | 0.00 | 0.00 | 55 | 1011.0 |
| 20260902013052 | 87 | 127 | 0.0 | 0.0 | 0.00 | 0.00 | 0.00 | 55 | 1010.9 |
| 20260902012524 | 87 | 127 | 0.0 | 0.0 | 0.00 | 0.00 | 0.00 | 55 | 1010.9 |
| 20260902012002 | 87 | 127 | 0.0 | 0.0 | 0.00 | 0.00 | 0.00 | 54 | 1010.9 |
| 20260902011545 | 87 | 127 | 0.0 | 0.0 | 0.00 | 0.00 | 0.00 | 53 | 1010.9 |
| 20260902011029 | 88 | 127 | 0.0 | 0.0 | 0.00 | 0.00 | 0.00 | 53 | 1010.8 |
| 20260902010504 | 88 | 127 | 0.0 | 0.0 | 0.00 | 0.00 | 0.00 | 52 | 1010.8 |
| 20260902010052 | 88 | 127 | 0.0 | 0.0 | 0.00 | 0.00 | 0.00 | 52 | 1010.9 |
| 20260902005527 | 88 | 127 | 0.0 | 0.0 | 0.00 | 0.00 | 0.00 | 51 | 1010.8 |
| 20260902005007 | 88 | 127 | 0.0 | 0.0 | 0.00 | 0.00 | 0.00 | 51 | 1010.8 |
| 20260902004557 | 89 | 127 | 0.0 | 0.0 | 0.00 | 0.00 | 0.00 | 51 | 1010.8 |
| 20260902004033 | 89 | 127 | 0.0 | 0.0 | 0.00 | 0.00 | 0.00 | 49 | 1010.9 |
| 20260902003509 | 89 | 127 | 0.0 | 0.0 | 0.00 | 0.00 | 0.00 | 49 | 1010.9 |
| 20260902003127 | 89 | 127 | 0.0 | 0.0 | 0.00 | 0.00 | 0.00 | 48 | 1010.9 |
| 20260902002531 | 90 | 127 | 0.0 | 0.0 | 0.00 | 0.00 | 0.00 | 48 | 1010.9 |
| 20260902002011 | 90 | 127 | 0.0 | 0.0 | 0.00 | 0.00 | 0.00 | 48 | 1011.0 |
| 20260902001555 | 90 | 127 | 0.0 | 0.0 | 0.00 | 0.00 | 0.00 | 48 | 1011.0 |
| 20260902001035 | 91 | 127 | 0.0 | 0.0 | 0.00 | 0.00 | 0.00 | 47 | 1011.0 |
| 20260902000514 | 91 | 127 | 0.0 | 0.0 | 0.00 | 0.00 | 0.00 | 46 | 1011.1 |
| 20260902000100 | 91 | 127 | 0.0 | 0.0 | 0.00 | 0.00 | 0.00 | 46 | 1011.1 |
| 20260901235537 | 92 | 127 | 0.0 | 0.0 | 0.00 | 0.00 | 0.00 | 46 | 1011.0 |
| 20260901235016 | 92 | 127 | 0.0 | 0.0 | 0.00 | 0.00 | 0.00 | 46 | 1011.0 |
| 20260901234559 | 92 | 127 | 0.0 | 0.0 | 0.00 | 0.00 | 0.00 | 44 | 1011.1 |
| 20260901234039 | 93 | 127 | 0.0 | 0.0 | 0.00 | 0.00 | 0.00 | 44 | 1011.1 |
| 20260901233520 | 93 | 127 | 0.0 | 0.0 | 0.00 | 0.00 | 0.00 | 43 | 1011.2 |
| 20260901233102 | 93 | 127 | 0.0 | 0.0 | 0.00 | 0.00 | 0.00 | 43 | 1011.2 |
| 20260901232541 | 93 | 127 | 0.0 | 1.0 | 0.00 | 0.00 | 0.00 | 42 | 1011.1 |
| 20260901232020 | 94 | 127 | 0.0 | 1.0 | 0.00 | 0.00 | 0.00 | 41 | 1011.0 |
| 20260901231605 | 94 | 141 | 0.0 | 1.0 | 0.00 | 0.00 | 0.00 | 42 | 1011.1 |
| 20260901231044 | 94 | 121 | 0.0 | 1.0 | 0.00 | 0.00 | 0.00 | 41 | 1011.1 |
| 20260901230523 | 94 | 143 | 0.0 | 1.0 | 0.00 | 0.00 | 0.00 | 40 | 1011.1 |
| 20260901230007 | 94 | 125 | 0.0 | 2.0 | 0.00 | 0.00 | 0.00 | 39 | 1011.1 |
| 20260901225547 | 94 | 174 | 0.0 | 2.0 | 0.00 | 0.00 | 0.00 | 39 | 1011.1 |
| 20260901225026 | 94 | 124 | 0.0 | 3.0 | 0.00 | 0.00 | 0.00 | 40 | 1011.0 |
| 20260901224509 | 95 | 157 | 0.0 | 0.0 | 0.00 | 0.00 | 0.00 | 40 | 1011.1 |
| 20260901224059 | 95 | 157 | 0.0 | 0.0 | 0.00 | 0.00 | 0.00 | 39 | 1011.1 |
| 20260901223537 | 95 | 157 | 0.0 | 2.0 | 0.00 | 0.00 | 0.00 | 38 | 1011.1 |
| 20260901223018 | 95 | 162 | 0.0 | 2.0 | 0.00 | 0.00 | 0.00 | 38 | 1011.1 |